Rbgn^[z[y[W
メイン
   新天体発見情報
     Comet C/2020 B2 (Lemmon)
投稿するにはまず登録を

スレッド表示 | 新しいものから 前のトピック | 次のトピック | 下へ
投稿者 スレッド
佐藤裕久
投稿日時: 2020-3-2 21:42
モデレータ
登録日: 2005-6-12
居住地: 日本
投稿: 2099
オンライン
Comet C/2020 B2 (Lemmon)

1月19日UT、この天体は新しいNEO候補としてMt Lemmon サーベイ(G96)によって通報され、
NEOCPに公表された。
その同じ夜、B. RyanとE. Ryan (H01)によって観測され、非常に集光した1"のコマとp.a.
290-310°に3"の尾の存在を示した。
この天体はPCCPに移された(PCCP C1T0QN2)。

彗星機能の追加報告は次の通り:

OC   Date     Reporter           Coma    Tail    PA          Exposures
H01  Jan. 20  B. Ryan              2"      2"    290-310
204  Jan. 23  L. Buzzi             5"                        75x60s
H06  Jan. 23  H. Sato             10"                        18x60s
F65  Jan. 23  R. Miles                     6"    100-280     3x120s
G37  Jan. 26  Q.-Z. Ye             1"     2".5   280-290

発見位置は次のとおり、

     2020 UT             R.A. (2000) Decl.       Mag.   Observer
     Jan. 19.45021   12 39 26.74   +41 28 36.0   21.1   Kowalski
          19.45552   12 39 26.52   +41 28 35.4   20.8     "
          19.46084   12 39 26.27   +41 28 34.4   21.1     "

MPCの楕円軌道要素と位置推算表は次のとおり、

Orbital elements:
    C/2020 B2 (Lemmon)                                                          
Epoch 2020 Feb. 1.0 TT = JDT 2458880.5                                          
T 2020 Jan. 23.56880 TT                                 Bell                    
q   2.7628491            (2000.0)            P               Q                  
z  +0.0165779      Peri.  142.75568     -0.75917716     -0.64597610             
 +/-0.0000000      Node   354.44667     +0.18501134     -0.09664960             
e   0.9541978      Incl.   55.52925     +0.62403594     -0.75721445             
From 88 observations 2020 Jan. 19-Feb. 5, mean residual 0".4.                   
                                                                                
    C/2020 B2 (Lemmon)                                                          
Epoch 2020 May 31.0 TT = JDT 2459000.5                                          
T 2020 Jan. 23.56485 TT                                 Bell                    
q   2.7628471            (2000.0)            P               Q                  
z  +0.0166138      Peri.  142.75555     -0.75917199     -0.64598054             
 +/-0.0000000      Node   354.44591     +0.18499662     -0.09660931             
e   0.9540986      Incl.   55.53160     +0.62404658     -0.75721581             
From 88 observations 2020 Jan. 19-Feb. 5, mean residual 0".4.                   
                                                                                
Ephemeris:
Date    TT    R. A. (2000) Decl.     Delta      r    Elong.  Phase   m1
2020 01 07    12 45 18.1 +41 51 47   2.2869  2.7679   109.0    19.6  20.7
...
2020 01 22    12 37 27.0 +41 24 06   2.1266  2.7629   120.8    17.8  20.6
...
2020 01 30    12 29 22.0 +41 07 36   2.0526  2.7636   127.4    16.5  20.5
...
2020 02 05    12 21 31.7 +40 50 14   2.0045  2.7657   132.3    15.3  20.4
2020 02 06    12 20 04.9 +40 46 43   1.9972  2.7662   133.1    15.1  20.4
2020 02 07    12 18 35.9 +40 42 59   1.9901  2.7667   133.9    14.9  20.4
...
2020 02 13    12 08 56.3 +40 15 34   1.9526  2.7705   138.5    13.6  20.4
...
2020 02 21    11 54 23.6 +39 22 31   1.9171  2.7777   143.9    12.1  20.4
...
2020 03 07    11 24 51.9 +36 40 00   1.9032  2.7974   148.5    10.7  20.4

(MPEC 2020-C110、CBET 4723)


スレッド表示 | 新しいものから 前のトピック | 次のトピック | トップ

投稿するにはまず登録を
 
© 1999 Tsutomu Seki.